Time,TemperatureF,DewpointF,PressureIn,WindDirection,WindDirectionDegrees,WindSpeedMPH,WindSpeedGustMPH,Humidity,HourlyPrecipIn,Conditions,Clouds,dailyrainin,SoftwareType,DateUTC
2015-01-26 00:02:00,55.9,49.8,29.98,SW,225,0.0,0.0,80,0.00,,,0.00,WUHU216HW,2015-01-26 05:02:00,
2015-01-26 00:07:00,55.9,49.8,29.98,SSW,203,0.0,0.0,80,0.00,,,0.00,WUHU216HW,2015-01-26 05:07:00,
2015-01-26 00:12:00,56.1,50.3,29.97,SSW,203,0.0,0.0,81,0.00,,,0.00,WUHU216HW,2015-01-26 05:12:00,
2015-01-26 00:17:00,56.3,50.8,29.97,SSW,203,0.0,0.0,82,0.00,,,0.00,WUHU216HW,2015-01-26 05:17:00,
2015-01-26 00:22:00,56.3,50.8,29.96,SSW,203,0.0,0.0,82,0.00,,,0.00,WUHU216HW,2015-01-26 05:22:00,
2015-01-26 00:27:00,56.4,51.0,29.95,SSW,203,0.0,0.0,82,0.00,,,0.00,WUHU216HW,2015-01-26 05:27:00,
2015-01-26 00:32:00,56.4,51.0,29.95,SSW,203,0.0,0.0,82,0.00,,,0.00,WUHU216HW,2015-01-26 05:32:00,
2015-01-26 00:37:00,56.4,51.0,29.95,SSW,203,0.0,0.0,82,0.00,,,0.00,WUHU216HW,2015-01-26 05:37:00,
2015-01-26 00:42:00,56.4,51.0,29.95,SSW,203,0.0,0.0,82,0.00,,,0.00,WUHU216HW,2015-01-26 05:42:00,
2015-01-26 00:47:00,56.6,51.1,29.95,SSW,203,0.0,0.0,82,0.00,,,0.00,WUHU216HW,2015-01-26 05:47:00,
2015-01-26 00:53:00,56.6,51.1,29.95,SSW,203,0.0,0.0,82,0.00,,,0.00,WUHU216HW,2015-01-26 05:53:00,
2015-01-26 00:58:00,56.8,51.3,29.94,SSW,203,0.0,0.0,82,0.00,,,0.00,WUHU216HW,2015-01-26 05:58:00,
2015-01-26 01:03:00,56.8,51.3,29.94,SSW,203,0.0,0.0,82,0.00,,,0.00,WUHU216HW,2015-01-26 06:03:00,
2015-01-26 01:08:00,56.6,51.1,29.94,SSW,203,0.0,0.0,82,0.00,,,0.00,WUHU216HW,2015-01-26 06:08:00,
2015-01-26 01:13:00,56.4,51.0,29.94,SSW,203,0.0,0.0,82,0.00,,,0.00,WUHU216HW,2015-01-26 06:13:00,
2015-01-26 01:18:00,56.4,51.0,29.94,SSW,203,0.0,0.0,82,0.00,,,0.00,WUHU216HW,2015-01-26 06:18:00,
2015-01-26 01:23:00,56.3,50.8,29.93,SSW,203,0.0,0.0,82,0.00,,,0.00,WUHU216HW,2015-01-26 06:23:00,
2015-01-26 01:28:00,56.1,50.6,29.94,SSW,203,0.0,0.0,82,0.00,,,0.00,WUHU216HW,2015-01-26 06:28:00,
2015-01-26 01:33:00,56.1,50.9,29.94,SSW,203,0.0,0.0,83,0.00,,,0.00,WUHU216HW,2015-01-26 06:33:00,
2015-01-26 01:38:00,56.1,50.9,29.94,SSW,203,0.0,0.0,83,0.00,,,0.00,WUHU216HW,2015-01-26 06:38:00,
2015-01-26 01:43:00,56.1,50.9,29.93,SSW,203,0.0,0.0,83,0.00,,,0.00,WUHU216HW,2015-01-26 06:43:00,
2015-01-26 01:49:00,55.9,50.7,29.93,SSW,203,0.0,0.0,83,0.00,,,0.00,WUHU216HW,2015-01-26 06:49:00,
2015-01-26 01:54:00,55.9,50.7,29.93,SSW,203,0.0,0.0,83,0.00,,,0.00,WUHU216HW,2015-01-26 06:54:00,
2015-01-26 01:59:00,55.9,50.7,29.93,SSW,203,0.0,0.0,83,0.00,,,0.00,WUHU216HW,2015-01-26 06:59:00,
2015-01-26 02:04:00,55.9,50.7,29.93,SSW,203,0.0,0.0,83,0.00,,,0.00,WUHU216HW,2015-01-26 07:04:00,
2015-01-26 02:09:00,55.9,50.7,29.93,SSW,203,0.0,0.0,83,0.00,,,0.00,WUHU216HW,2015-01-26 07:09:00,
2015-01-26 02:14:00,55.9,50.7,29.93,SSW,203,0.0,0.0,83,0.00,,,0.00,WUHU216HW,2015-01-26 07:14:00,
2015-01-26 02:19:00,55.9,50.7,29.92,SSW,203,0.0,0.0,83,0.00,,,0.00,WUHU216HW,2015-01-26 07:19:00,
2015-01-26 02:24:00,55.9,50.7,29.93,SSW,203,0.0,0.0,83,0.00,,,0.00,WUHU216HW,2015-01-26 07:24:00,
2015-01-26 02:29:00,55.9,50.7,29.92,SSW,203,0.0,0.0,83,0.00,,,0.00,WUHU216HW,2015-01-26 07:29:00,
2015-01-26 02:34:00,55.9,50.7,29.93,SSW,203,0.0,0.0,83,0.00,,,0.00,WUHU216HW,2015-01-26 07:34:00,
2015-01-26 02:39:00,56.1,50.9,29.93,SSW,203,0.0,0.0,83,0.00,,,0.00,WUHU216HW,2015-01-26 07:39:00,
2015-01-26 02:44:00,56.1,50.9,29.92,SSW,203,0.0,0.0,83,0.00,,,0.00,WUHU216HW,2015-01-26 07:44:00,
2015-01-26 02:49:00,56.3,51.1,29.93,SSW,203,0.0,0.0,83,0.00,,,0.00,WUHU216HW,2015-01-26 07:49:00,
2015-01-26 02:54:00,56.3,51.1,29.92,SSW,203,0.0,0.0,83,0.00,,,0.00,WUHU216HW,2015-01-26 07:54:00,
2015-01-26 02:59:00,56.3,51.1,29.92,SSW,203,0.0,0.0,83,0.00,,,0.00,WUHU216HW,2015-01-26 07:59:00,
2015-01-26 03:04:00,56.3,51.1,29.92,SSW,203,0.0,0.0,83,0.00,,,0.00,WUHU216HW,2015-01-26 08:04:00,
2015-01-26 03:09:00,56.3,51.1,29.92,SSW,203,0.0,0.0,83,0.00,,,0.00,WUHU216HW,2015-01-26 08:09:00,
2015-01-26 03:15:00,56.3,51.1,29.92,SSW,203,0.0,0.0,83,0.00,,,0.00,WUHU216HW,2015-01-26 08:15:00,
2015-01-26 03:20:00,56.3,51.1,29.92,SSW,203,0.0,0.0,83,0.00,,,0.00,WUHU216HW,2015-01-26 08:20:00,
2015-01-26 03:25:00,56.4,51.3,29.93,SSW,203,0.0,0.0,83,0.00,,,0.00,WUHU216HW,2015-01-26 08:25:00,
2015-01-26 03:30:00,56.4,51.3,29.92,SSW,203,0.0,0.0,83,0.00,,,0.00,WUHU216HW,2015-01-26 08:30:00,
2015-01-26 03:35:00,56.8,51.6,29.92,SSW,203,0.0,0.0,83,0.00,,,0.00,WUHU216HW,2015-01-26 08:35:00,
2015-01-26 03:40:00,56.8,51.6,29.92,SSW,203,0.0,0.0,83,0.00,,,0.00,WUHU216HW,2015-01-26 08:40:00,
2015-01-26 03:45:00,57.0,52.1,29.92,SSW,203,0.0,0.0,84,0.00,,,0.00,WUHU216HW,2015-01-26 08:45:00,
2015-01-26 03:50:00,57.0,52.1,29.92,SSW,203,0.0,0.0,84,0.00,,,0.00,WUHU216HW,2015-01-26 08:50:00,
2015-01-26 03:55:00,57.3,52.5,29.92,SW,225,0.0,0.0,84,0.00,,,0.00,WUHU216HW,2015-01-26 08:55:00,
2015-01-26 04:01:00,57.3,52.5,29.91,SW,225,0.0,0.0,84,0.00,,,0.00,WUHU216HW,2015-01-26 09:01:00,
2015-01-26 04:06:00,57.7,52.9,29.91,SW,225,0.0,0.0,84,0.00,,,0.00,WUHU216HW,2015-01-26 09:06:00,
2015-01-26 04:11:00,57.9,53.0,29.91,SW,225,0.0,0.0,84,0.00,,,0.00,WUHU216HW,2015-01-26 09:11:00,
2015-01-26 04:16:00,57.9,52.7,29.90,SW,225,0.0,0.0,83,0.00,,,0.00,WUHU216HW,2015-01-26 09:16:00,
2015-01-26 04:21:00,57.9,52.7,29.90,SW,225,0.0,0.0,83,0.00,,,0.00,WUHU216HW,2015-01-26 09:21:00,
2015-01-26 04:26:00,58.1,52.9,29.90,SW,225,0.0,0.0,83,0.00,,,0.00,WUHU216HW,2015-01-26 09:26:00,
2015-01-26 04:31:00,58.2,53.4,29.90,SW,225,0.0,0.0,84,0.00,,,0.00,WUHU216HW,2015-01-26 09:31:00,
2015-01-26 04:36:00,58.4,53.6,29.90,SW,225,0.0,0.0,84,0.00,,,0.00,WUHU216HW,2015-01-26 09:36:00,
2015-01-26 04:42:00,58.6,53.8,29.89,SSW,203,0.0,0.0,84,0.00,,,0.00,WUHU216HW,2015-01-26 09:42:00,
2015-01-26 04:47:00,58.8,53.9,29.89,SW,225,1.3,1.3,84,0.00,,,0.00,WUHU216HW,2015-01-26 09:47:00,
2015-01-26 04:51:00,59.0,54.1,29.89,SSW,203,0.0,1.3,84,0.00,,,0.00,WUHU216HW,2015-01-26 09:51:00,
2015-01-26 04:57:00,59.3,54.5,29.89,WSW,248,0.0,2.6,84,0.00,,,0.00,WUHU216HW,2015-01-26 09:57:00,
2015-01-26 05:02:00,59.7,55.2,29.89,SW,225,0.6,2.6,85,0.00,,,0.00,WUHU216HW,2015-01-26 10:02:00,
2015-01-26 05:07:00,59.9,55.4,29.89,WSW,248,0.0,0.6,85,0.00,,,0.00,WUHU216HW,2015-01-26 10:07:00,
2015-01-26 05:12:00,60.4,55.6,29.88,SW,225,0.0,0.0,84,0.00,,,0.00,WUHU216HW,2015-01-26 10:12:00,
2015-01-26 05:17:00,60.6,55.7,29.88,WSW,248,0.0,0.0,84,0.00,,,0.00,WUHU216HW,2015-01-26 10:17:00,
2015-01-26 05:22:00,60.6,55.7,29.88,SSW,203,0.0,0.0,84,0.00,,,0.00,WUHU216HW,2015-01-26 10:22:00,
2015-01-26 05:27:00,60.9,56.1,29.88,SSW,203,1.3,1.3,84,0.00,,,0.00,WUHU216HW,2015-01-26 10:27:00,
2015-01-26 05:32:00,60.9,56.4,29.88,SSW,203,0.0,1.3,85,0.00,,,0.00,WUHU216HW,2015-01-26 10:32:00,
2015-01-26 05:37:00,61.1,56.3,29.88,SSW,203,0.0,0.0,84,0.00,,,0.00,WUHU216HW,2015-01-26 10:37:00,
2015-01-26 05:42:00,61.1,56.3,29.87,SSW,203,0.0,0.0,84,0.00,,,0.00,WUHU216HW,2015-01-26 10:42:00,
2015-01-26 05:47:00,61.1,56.3,29.87,SSW,203,0.0,0.0,84,0.00,,,0.00,WUHU216HW,2015-01-26 10:47:00,
2015-01-26 05:53:00,61.1,56.3,29.86,SSW,203,0.6,0.6,84,0.00,,,0.00,WUHU216HW,2015-01-26 10:53:00,
2015-01-26 05:58:00,61.3,56.4,29.86,WSW,248,0.0,0.6,84,0.00,,,0.00,WUHU216HW,2015-01-26 10:58:00,
2015-01-26 06:03:00,61.5,56.9,29.87,WSW,248,3.1,3.1,85,0.00,,,0.00,WUHU216HW,2015-01-26 11:03:00,
2015-01-26 06:08:00,61.5,56.9,29.87,WSW,248,0.0,3.1,85,0.00,,,0.00,WUHU216HW,2015-01-26 11:08:00,
2015-01-26 06:13:00,61.5,56.9,29.87,West,270,0.0,0.0,85,0.00,,,0.00,WUHU216HW,2015-01-26 11:13:00,
2015-01-26 06:18:00,61.8,57.3,29.87,WSW,248,0.0,1.5,85,0.00,,,0.00,WUHU216HW,2015-01-26 11:18:00,
2015-01-26 06:23:00,62.0,57.4,29.87,SW,225,0.0,1.5,85,0.00,,,0.00,WUHU216HW,2015-01-26 11:23:00,
2015-01-26 06:28:00,62.2,57.6,29.87,West,270,0.0,1.7,85,0.00,,,0.00,WUHU216HW,2015-01-26 11:28:00,
2015-01-26 06:33:00,62.4,57.8,29.87,West,270,0.0,1.7,85,0.00,,,0.00,WUHU216HW,2015-01-26 11:33:00,
2015-01-26 06:38:00,62.7,58.1,29.87,SSW,203,0.0,0.0,85,0.00,,,0.00,WUHU216HW,2015-01-26 11:38:00,
2015-01-26 06:44:00,62.9,58.3,29.89,WSW,248,10.5,10.5,85,0.00,,,0.00,WUHU216HW,2015-01-26 11:44:00,
2015-01-26 06:49:00,63.3,59.0,29.89,West,270,7.3,10.5,86,0.02,,,0.02,WUHU216HW,2015-01-26 11:49:00,
2015-01-26 06:54:00,63.3,59.4,29.89,WSW,248,3.5,8.5,87,0.04,,,0.04,WUHU216HW,2015-01-26 11:54:00,
2015-01-26 06:59:00,63.3,59.0,29.89,West,270,2.4,8.5,86,0.04,,,0.04,WUHU216HW,2015-01-26 11:59:00,
2015-01-26 07:04:00,63.3,59.0,29.89,WSW,248,8.2,8.2,86,0.04,,,0.04,WUHU216HW,2015-01-26 12:04:00,
2015-01-26 07:09:00,63.3,59.0,29.88,WSW,248,2.0,8.2,86,0.04,,,0.04,WUHU216HW,2015-01-26 12:09:00,
2015-01-26 07:14:00,63.1,58.8,29.89,West,270,3.3,3.3,86,0.04,,,0.04,WUHU216HW,2015-01-26 12:14:00,
2015-01-26 07:19:00,63.1,58.8,29.89,WSW,248,0.0,3.3,86,0.04,,,0.04,WUHU216HW,2015-01-26 12:19:00,
2015-01-26 07:24:00,62.9,58.7,29.88,WSW,248,5.3,5.3,86,0.04,,,0.04,WUHU216HW,2015-01-26 12:24:00,
2015-01-26 07:29:00,62.9,58.7,29.89,SSW,203,2.9,5.3,86,0.04,,,0.04,WUHU216HW,2015-01-26 12:29:00,
2015-01-26 07:35:00,62.9,59.0,29.88,West,270,0.0,2.9,87,0.04,,,0.04,WUHU216HW,2015-01-26 12:35:00,
2015-01-26 07:40:00,63.1,59.2,29.88,NW,315,2.0,2.0,87,0.04,,,0.04,WUHU216HW,2015-01-26 12:40:00,
2015-01-26 07:45:00,63.1,59.5,29.92,North,0,8.2,8.2,88,0.02,,,0.04,WUHU216HW,2015-01-26 12:45:00,
2015-01-26 07:50:00,62.9,59.3,29.92,North,0,0.8,8.2,88,0.08,,,0.12,WUHU216HW,2015-01-26 12:50:00,
2015-01-26 07:55:00,62.7,59.2,29.92,NW,315,2.2,3.1,88,0.08,,,0.12,WUHU216HW,2015-01-26 12:55:00,
2015-01-26 08:00:00,62.4,58.8,29.92,NNW,338,0.0,2.2,88,0.08,,,0.12,WUHU216HW,2015-01-26 13:00:00,
2015-01-26 08:05:00,62.4,58.8,29.92,WNW,293,0.0,2.2,88,0.08,,,0.12,WUHU216HW,2015-01-26 13:05:00,
2015-01-26 08:10:00,62.2,58.6,29.93,West,270,0.0,0.0,88,0.08,,,0.12,WUHU216HW,2015-01-26 13:10:00,
2015-01-26 08:16:00,62.0,58.4,29.93,West,270,0.0,3.1,88,0.08,,,0.12,WUHU216HW,2015-01-26 13:16:00,
2015-01-26 08:21:00,61.8,58.3,29.93,NW,315,2.2,3.1,88,0.08,,,0.12,WUHU216HW,2015-01-26 13:21:00,
2015-01-26 08:26:00,61.8,58.3,29.93,NNW,338,3.8,3.8,88,0.08,,,0.12,WUHU216HW,2015-01-26 13:26:00,
2015-01-26 08:31:00,62.0,58.4,29.94,WSW,248,0.0,3.8,88,0.08,,,0.12,WUHU216HW,2015-01-26 13:31:00,
2015-01-26 08:36:00,61.8,58.6,29.93,NNW,338,0.0,8.5,89,0.08,,,0.12,WUHU216HW,2015-01-26 13:36:00,
2015-01-26 08:41:00,62.0,58.8,29.93,NNW,338,0.0,8.5,89,0.08,,,0.12,WUHU216HW,2015-01-26 13:41:00,
2015-01-26 08:46:00,62.0,58.8,29.93,North,0,0.0,0.0,89,0.02,,,0.12,WUHU216HW,2015-01-26 13:46:00,
2015-01-26 08:51:00,62.2,59.0,29.93,NNW,338,0.0,0.0,89,0.00,,,0.12,WUHU216HW,2015-01-26 13:51:00,
2015-01-26 08:56:00,62.2,59.0,29.93,NNW,338,0.0,0.0,89,0.00,,,0.12,WUHU216HW,2015-01-26 13:56:00,
2015-01-26 09:01:00,62.4,59.1,29.93,WNW,293,0.0,0.0,89,0.00,,,0.12,WUHU216HW,2015-01-26 14:01:00,
2015-01-26 09:06:00,62.4,59.1,29.93,WNW,293,0.0,0.0,89,0.00,,,0.12,WUHU216HW,2015-01-26 14:06:00,
2015-01-26 09:11:00,62.4,59.1,29.93,WNW,293,0.0,0.0,89,0.00,,,0.12,WUHU216HW,2015-01-26 14:11:00,
2015-01-26 09:17:00,62.7,59.5,29.93,West,270,0.0,0.0,89,0.00,,,0.12,WUHU216HW,2015-01-26 14:17:00,
2015-01-26 09:22:00,62.9,59.7,29.93,WSW,248,0.0,0.0,89,0.00,,,0.12,WUHU216HW,2015-01-26 14:22:00,
2015-01-26 09:27:00,63.1,60.2,29.94,West,270,0.0,0.0,90,0.00,,,0.12,WUHU216HW,2015-01-26 14:27:00,
2015-01-26 09:32:00,63.3,60.4,29.94,NW,315,0.0,0.0,90,0.00,,,0.12,WUHU216HW,2015-01-26 14:32:00,
2015-01-26 09:37:00,63.5,60.6,29.94,West,270,0.0,0.0,90,0.00,,,0.12,WUHU216HW,2015-01-26 14:37:00,
2015-01-26 09:42:00,64.0,61.1,29.94,West,270,0.0,0.0,90,0.00,,,0.12,WUHU216HW,2015-01-26 14:42:00,
2015-01-26 09:47:00,64.2,61.3,29.94,West,270,0.0,0.0,90,0.00,,,0.12,WUHU216HW,2015-01-26 14:47:00,
2015-01-26 09:52:00,64.5,61.6,29.95,NW,311,3.0,4.6,90,0.00,,,0.12,WUHU216HW,2015-01-26 14:52:00,
2015-01-26 09:57:00,64.9,62.0,29.94,NNE,26,4.6,7.6,90,0.00,,,0.12,WUHU216HW,2015-01-26 14:57:00,
2015-01-26 10:02:00,65.1,61.8,29.94,West,270,6.0,7.6,89,0.00,,,0.12,WUHU216HW,2015-01-26 15:02:00,
2015-01-26 10:08:00,65.8,61.8,29.94,NW,315,2.2,6.0,87,0.00,,,0.12,WUHU216HW,2015-01-26 15:08:00,
2015-01-26 10:13:00,66.0,61.9,29.95,WNW,293,0.0,2.2,87,0.00,,,0.12,WUHU216HW,2015-01-26 15:13:00,
2015-01-26 10:18:00,66.2,61.8,29.95,West,270,1.3,2.2,86,0.00,,,0.12,WUHU216HW,2015-01-26 15:18:00,
2015-01-26 10:23:00,66.3,61.3,29.95,North,3,1.8,2.4,84,0.00,,,0.12,WUHU216HW,2015-01-26 15:23:00,
2015-01-26 10:28:00,66.3,60.7,29.94,North,0,9.1,9.1,82,0.00,,,0.12,WUHU216HW,2015-01-26 15:28:00,
2015-01-26 10:33:00,66.7,60.7,29.94,NNW,338,0.0,9.1,81,0.00,,,0.12,WUHU216HW,2015-01-26 15:33:00,
2015-01-26 10:38:00,66.9,60.6,29.94,North,0,0.0,4.2,80,0.00,,,0.12,WUHU216HW,2015-01-26 15:38:00,
2015-01-26 10:43:00,67.1,60.4,29.94,NW,305,7.4,7.6,79,0.00,,,0.12,WUHU216HW,2015-01-26 15:43:00,
2015-01-26 10:48:00,67.4,60.4,29.94,West,270,3.1,7.6,78,0.00,,,0.12,WUHU216HW,2015-01-26 15:48:00,
2015-01-26 10:53:00,67.6,60.2,29.94,SW,225,4.6,4.6,77,0.00,,,0.12,WUHU216HW,2015-01-26 15:53:00,
2015-01-26 10:58:00,67.8,59.6,29.94,NNW,338,2.0,4.6,75,0.00,,,0.12,WUHU216HW,2015-01-26 15:58:00,
2015-01-26 11:03:00,68.1,59.5,29.94,North,350,2.8,4.0,74,0.00,,,0.12,WUHU216HW,2015-01-26 16:03:00,
2015-01-26 11:08:00,68.1,58.8,29.94,West,270,6.0,6.0,72,0.00,,,0.12,WUHU216HW,2015-01-26 16:08:00,
2015-01-26 11:13:00,68.5,58.7,29.94,NW,315,0.0,7.6,71,0.00,,,0.12,WUHU216HW,2015-01-26 16:13:00,
2015-01-26 11:18:00,68.7,58.5,29.94,West,270,7.1,7.6,70,0.00,,,0.12,WUHU216HW,2015-01-26 16:18:00,
2015-01-26 11:24:00,68.7,58.1,29.94,North,0,0.0,7.1,69,0.00,,,0.12,WUHU216HW,2015-01-26 16:24:00,
2015-01-26 11:29:00,68.9,57.8,29.93,West,270,2.6,7.1,68,0.00,,,0.12,WUHU216HW,2015-01-26 16:29:00,
2015-01-26 11:34:00,69.0,57.6,29.93,North,0,0.0,3.1,67,0.00,,,0.12,WUHU216HW,2015-01-26 16:34:00,
2015-01-26 11:39:00,69.0,56.7,29.93,SSW,203,5.3,13.4,65,0.00,,,0.12,WUHU216HW,2015-01-26 16:39:00,
2015-01-26 11:44:00,69.0,56.7,29.92,WNW,293,3.5,13.4,65,0.00,,,0.12,WUHU216HW,2015-01-26 16:44:00,
2015-01-26 11:49:00,69.0,56.3,29.92,NE,45,0.0,5.3,64,0.00,,,0.12,WUHU216HW,2015-01-26 16:49:00,
2015-01-26 11:54:00,69.0,55.9,29.92,South,180,2.2,4.4,63,0.00,,,0.12,WUHU216HW,2015-01-26 16:54:00,
2015-01-26 11:59:00,69.2,55.6,29.92,SW,225,4.6,4.6,62,0.00,,,0.12,WUHU216HW,2015-01-26 16:59:00,
2015-01-26 12:04:00,69.4,55.8,29.92,WSW,248,6.4,6.4,62,0.00,,,0.12,WUHU216HW,2015-01-26 17:04:00,
2015-01-26 12:09:00,69.6,55.6,29.92,WSW,248,3.1,6.4,61,0.00,,,0.12,WUHU216HW,2015-01-26 17:09:00,
2015-01-26 12:14:00,69.6,55.6,29.92,SW,225,2.9,5.3,61,0.00,,,0.12,WUHU216HW,2015-01-26 17:14:00,
2015-01-26 12:19:00,69.6,55.2,29.92,WSW,248,8.0,8.0,60,0.00,,,0.12,WUHU216HW,2015-01-26 17:19:00,
2015-01-26 12:24:00,69.9,55.5,29.92,West,270,3.5,10.5,60,0.00,,,0.12,WUHU216HW,2015-01-26 17:24:00,
2015-01-26 12:29:00,70.1,55.7,29.91,WNW,293,4.6,10.5,60,0.00,,,0.12,WUHU216HW,2015-01-26 17:29:00,
2015-01-26 12:34:00,70.3,55.8,29.90,WSW,248,8.7,8.7,60,0.00,,,0.12,WUHU216HW,2015-01-26 17:34:00,
2015-01-26 12:40:00,70.3,55.3,29.90,West,265,6.4,8.7,59,0.00,,,0.12,WUHU216HW,2015-01-26 17:40:00,
2015-01-26 12:45:00,70.3,55.3,29.90,South,180,7.8,7.8,59,0.00,,,0.12,WUHU216HW,2015-01-26 17:45:00,
2015-01-26 12:50:00,70.5,55.5,29.90,NNE,23,2.9,7.8,59,0.00,,,0.12,WUHU216HW,2015-01-26 17:50:00,
2015-01-26 12:55:00,70.7,55.7,29.90,NNE,23,5.8,7.8,59,0.00,,,0.12,WUHU216HW,2015-01-26 17:55:00,
2015-01-26 13:00:00,70.8,55.8,29.90,West,270,3.1,5.8,59,0.00,,,0.12,WUHU216HW,2015-01-26 18:00:00,
2015-01-26 13:05:00,71.2,55.6,29.90,NW,315,7.3,7.3,58,0.00,,,0.12,WUHU216HW,2015-01-26 18:05:00,
2015-01-26 13:10:00,71.0,55.5,29.90,NE,45,2.2,7.3,58,0.00,,,0.12,WUHU216HW,2015-01-26 18:10:00,
2015-01-26 13:15:00,71.2,55.6,29.90,West,270,4.6,7.3,58,0.00,,,0.12,WUHU216HW,2015-01-26 18:15:00,
2015-01-26 13:20:00,70.8,55.8,29.89,NW,315,4.6,4.6,59,0.00,,,0.12,WUHU216HW,2015-01-26 18:20:00,
2015-01-26 13:25:00,70.8,55.8,29.89,WNW,293,1.7,4.6,59,0.00,,,0.12,WUHU216HW,2015-01-26 18:25:00,
2015-01-26 13:30:00,70.8,55.8,29.89,NNE,23,3.5,4.6,59,0.00,,,0.12,WUHU216HW,2015-01-26 18:30:00,
2015-01-26 13:35:00,70.8,56.3,29.89,SW,219,6.0,7.6,60,0.00,,,0.12,WUHU216HW,2015-01-26 18:35:00,
2015-01-26 13:40:00,70.8,56.3,29.89,NW,315,1.5,7.6,60,0.00,,,0.12,WUHU216HW,2015-01-26 18:40:00,
2015-01-26 13:46:00,71.0,56.5,29.89,SSW,203,6.9,6.9,60,0.00,,,0.12,WUHU216HW,2015-01-26 18:46:00,
2015-01-26 13:51:00,71.4,56.3,29.89,NNE,23,6.7,6.9,59,0.00,,,0.12,WUHU216HW,2015-01-26 18:51:00,
2015-01-26 13:56:00,71.4,55.8,29.88,North,0,6.8,7.6,58,0.00,,,0.12,WUHU216HW,2015-01-26 18:56:00,
2015-01-26 14:01:00,71.2,55.6,29.88,West,270,1.5,7.6,58,0.00,,,0.12,WUHU216HW,2015-01-26 19:01:00,
2015-01-26 14:06:00,71.2,55.6,29.88,West,270,3.8,6.0,58,0.00,,,0.12,WUHU216HW,2015-01-26 19:06:00,
2015-01-26 14:11:00,70.8,55.6,29.88,WSW,248,7.8,7.8,57,0.00,,,0.12,WUHU216HW,2015-01-26 19:11:00,
2015-01-26 14:16:00,70.8,55.3,29.88,NNW,333,5.6,7.8,58,0.00,,,0.12,WUHU216HW,2015-01-26 19:16:00,
2015-01-26 14:21:00,70.8,55.3,29.89,WSW,248,7.8,7.8,58,0.00,,,0.12,WUHU216HW,2015-01-26 19:21:00,
2015-01-26 14:26:00,71.2,55.1,29.89,West,270,2.2,7.8,57,0.00,,,0.12,WUHU216HW,2015-01-26 19:26:00,
2015-01-26 14:31:00,70.8,54.8,29.88,WSW,254,2.8,4.6,57,0.00,,,0.12,WUHU216HW,2015-01-26 19:31:00,
2015-01-26 14:37:00,70.8,54.8,29.88,West,270,2.9,3.8,57,0.00,,,0.12,WUHU216HW,2015-01-26 19:37:00,
2015-01-26 14:42:00,70.8,54.8,29.89,WSW,251,3.8,4.4,57,0.00,,,0.12,WUHU216HW,2015-01-26 19:42:00,
2015-01-26 14:45:00,70.8,54.8,29.89,West,270,2.0,4.4,57,0.00,,,0.12,WUHU216HW,2015-01-26 19:45:00,
2015-01-26 14:50:00,70.8,54.3,29.88,North,0,5.5,8.2,56,0.00,,,0.12,WUHU216HW,2015-01-26 19:50:00,
2015-01-26 14:55:00,70.8,53.8,29.89,West,270,0.0,8.2,55,0.00,,,0.12,WUHU216HW,2015-01-26 19:55:00,
2015-01-26 15:00:00,70.8,54.3,29.89,North,0,0.0,5.5,56,0.00,,,0.12,WUHU216HW,2015-01-26 20:00:00,
2015-01-26 15:05:00,70.8,54.3,29.89,NW,312,4.1,7.6,56,0.00,,,0.12,WUHU216HW,2015-01-26 20:05:00,
2015-01-26 15:10:00,70.8,54.3,29.89,West,270,0.0,7.6,56,0.00,,,0.12,WUHU216HW,2015-01-26 20:10:00,
2015-01-26 15:15:00,70.8,54.3,29.89,SW,225,5.5,11.4,56,0.00,,,0.12,WUHU216HW,2015-01-26 20:15:00,
2015-01-26 15:21:00,70.8,54.3,29.89,WSW,248,3.5,11.4,56,0.00,,,0.12,WUHU216HW,2015-01-26 20:21:00,
2015-01-26 15:26:00,70.8,54.3,29.89,West,270,1.3,6.7,56,0.00,,,0.12,WUHU216HW,2015-01-26 20:26:00,
2015-01-26 15:31:00,70.7,54.1,29.89,WSW,248,3.3,6.7,56,0.00,,,0.12,WUHU216HW,2015-01-26 20:31:00,
2015-01-26 15:36:00,70.8,54.3,29.89,West,270,3.8,6.0,56,0.00,,,0.12,WUHU216HW,2015-01-26 20:36:00,
2015-01-26 15:41:00,70.7,54.1,29.89,WSW,248,5.3,5.8,56,0.00,,,0.12,WUHU216HW,2015-01-26 20:41:00,
2015-01-26 15:46:00,70.5,54.0,29.89,West,270,3.3,5.3,56,0.00,,,0.12,WUHU216HW,2015-01-26 20:46:00,
2015-01-26 15:51:00,70.1,53.2,29.89,West,270,2.0,4.4,55,0.00,,,0.12,WUHU216HW,2015-01-26 20:51:00,
2015-01-26 15:56:00,69.8,53.2,29.89,SW,225,2.9,5.3,56,0.00,,,0.12,WUHU216HW,2015-01-26 20:56:00,
2015-01-26 16:01:00,69.6,53.2,29.89,West,270,5.9,6.4,56,0.00,,,0.12,WUHU216HW,2015-01-26 21:01:00,
2015-01-26 16:06:00,69.6,53.2,29.90,WSW,248,3.1,6.4,56,0.00,,,0.12,WUHU216HW,2015-01-26 21:06:00,
2015-01-26 16:11:00,69.6,52.7,29.90,NNE,23,5.5,6.2,55,0.00,,,0.12,WUHU216HW,2015-01-26 21:11:00,
2015-01-26 16:16:00,69.6,52.7,29.90,NE,45,6.0,6.0,55,0.00,,,0.12,WUHU216HW,2015-01-26 21:16:00,
2015-01-26 16:21:00,69.6,52.7,29.90,WSW,248,2.0,6.0,55,0.00,,,0.12,WUHU216HW,2015-01-26 21:21:00,
2015-01-26 16:26:00,69.6,52.1,29.90,West,270,4.0,6.4,54,0.00,,,0.12,WUHU216HW,2015-01-26 21:26:00,
2015-01-26 16:31:00,69.6,52.1,29.90,WNW,293,6.1,7.1,54,0.00,,,0.12,WUHU216HW,2015-01-26 21:31:00,